HB9FHL-13 Weather Reports


Display with metric or nautical units.
time (UTC)temp
F
wind
direction
speed
MPH
gust
MPH
rain 1hr
in
rain 24hr
in
rain mn
in
humidity
%
barometer
mb
20260502181624 69 222 1.0 3.0 0.00 0.00 0.00 1016.7
20260502181124 68 219 0.0 2.0 0.00 0.00 0.00 1011.3
20260502180623 68 221 0.0 2.0 0.00 0.00 0.00 1017.2
20260502180123 70 0 0.0 0.0 0.00 0.00 0.00 1017.1
20260502170114 70 49 4.0 5.0 0.00 0.00 0.00 1014.8
20260502164112 72 32 3.0 5.0 0.00 0.00 0.00 1015.9
20260502163612 72 13 2.0 5.0 0.00 0.00 0.00 1013.5
20260502163111 70 69 4.0 6.0 0.00 0.00 0.00 1016.5
20260502162612 70 23 2.0 6.0 0.00 0.00 0.00 1017.8
20260502162110 72 66 4.0 6.0 0.00 0.00 0.00 1018.5
20260502161610 71 20 3.0 6.0 0.00 0.00 0.00 1014.7
20260502161110 72 89 3.0 5.0 0.00 0.00 0.00 1014.4
20260502160608 69 58 3.0 5.0 0.00 0.00 0.00 1017.6
20260502160108 70 80 4.0 6.0 0.00 0.00 0.00 1015.6
20260502152058 70 52 5.0 9.0 0.00 0.00 0.00 1018.5
20260502151053 69 10 5.0 7.0 0.00 0.00 0.00 1014.7
20260502150553 71 46 5.0 8.0 0.00 0.00 0.00 1020.2
20260502130534 69 21 4.0 9.0 0.00 0.00 0.00 1024.4
20260502123029 67 91 5.0 10.0 0.00 0.00 0.00 1017.8
20260502122529 68 75 5.0 9.0 0.00 0.00 0.00 1020.6
20260502122029 67 83 5.0 10.0 0.00 0.00 0.00 1022.4
20260502121528 67 89 6.0 8.0 0.00 0.00 0.00 1027.6
20260502121028 68 76 7.0 9.0 0.00 0.00 0.00 1017.7
20260502120526 68 89 4.0 8.0 0.00 0.00 0.00 1022.8
20260502115525 68 59 5.0 10.0 0.00 0.00 0.00 1018.2
20260502115024 67 330 4.0 9.0 0.00 0.00 0.00 1023.8
20260502114524 68 356 3.0 6.0 0.00 0.00 0.00 1028.4
20260502114023 67 347 2.0 7.0 0.00 0.00 0.00 1020.7
20260502113523 68 51 6.0 9.0 0.00 0.00 0.00 1031.3
20260502113022 65 14 4.0 7.0 0.00 0.00 0.00 1024.9
20260502112521 66 55 6.0 9.0 0.00 0.00 0.00 1019.2
20260502112020 67 24 3.0 7.0 0.00 0.00 0.00 1020.1
20260502111518 66 39 4.0 7.0 0.00 0.00 0.00 1021.5
20260502111018 66 31 5.0 8.0 0.00 0.00 0.00 1024.2
20260502110517 66 55 6.0 8.0 0.00 0.00 0.00 1021.3
20260502110017 66 60 6.0 9.0 0.00 0.00 0.00 1022.8
20260502105516 64 83 6.0 9.0 0.00 0.00 0.00 1021.3
20260502105015 64 55 6.0 10.0 0.00 0.00 0.00 1022.2
20260502104514 65 91 5.0 7.0 0.00 0.00 0.00 1027.0
20260502104013 66 75 6.0 10.0 0.00 0.00 0.00 1021.5
20260502103513 66 73 5.0 10.0 0.00 0.00 0.00 1025.2
20260502103012 65 23 4.0 7.0 0.00 0.00 0.00 1024.9
20260502102514 64 73 7.0 10.0 0.00 0.00 0.00 1023.2
20260502102011 65 87 6.0 10.0 0.00 0.00 0.00 1026.6
20260502101510 64 45 6.0 8.0 0.00 0.00 0.00 1024.0
20260502101010 66 89 5.0 8.0 0.00 0.00 0.00 1024.0
20260502100511 65 75 5.0 8.0 0.00 0.00 0.00 1025.3
20260502091503 65 34 6.0 8.0 0.00 0.00 0.00 1023.6
20260502091002 65 46 4.0 8.0 0.00 0.00 0.00 1024.5
20260502090502 64 44 4.0 7.0 0.00 0.00 0.00 1028.1
20260502071440 62 333 0.0 3.0 0.00 0.00 0.00 1026.9
20260502070941 62 70 1.0 2.0 0.00 0.00 0.00 1025.7
20260502070439 62 46 1.0 2.0 0.00 0.00 0.00 1024.1
20260502065940 62 62 2.0 4.0 0.00 0.00 0.00 1025.4
20260502065438 63 70 2.0 4.0 0.00 0.00 0.00 1025.3
20260502064937 61 226 1.0 3.0 0.00 0.00 0.00 1020.7
20260502064437 62 221 1.0 2.0 0.00 0.00 0.00 1024.4
20260502063936 63 298 0.0 3.0 0.00 0.00 0.00 1025.1
20260502063434 62 0 0.0 0.0 0.00 0.00 0.00 1027.2
20260502062930 60 225 1.0 2.0 0.00 0.00 0.00 1022.7
20260502062430 62 0 0.0 0.0 0.00 0.00 0.00 1023.8
20260502061930 62 0 0.0 0.0 0.00 0.00 0.00 1023.1
20260502061426 62 7 1.0 2.0 0.00 0.00 0.00 1025.7
20260502060925 62 28 0.0 2.0 0.00 0.00 0.00 1024.6
20260502060425 62 0 0.0 0.0 0.00 0.00 0.00 1022.5
20260502055925 61 0 0.0 0.0 0.00 0.00 0.00 1023.1
20260502055423 62 356 1.0 3.0 0.00 0.00 0.00 1024.6
20260502054922 61 0 0.0 0.0 0.00 0.00 0.00 1023.8
20260502054422 62 218 0.0 2.0 0.00 0.00 0.00 1024.4
20260502053921 61 229 0.0 2.0 0.00 0.00 0.00 1024.1
20260502053421 62 0 0.0 0.0 0.00 0.00 0.00 1024.6
20260502052920 61 0 0.0 0.0 0.00 0.00 0.00 1022.3
20260502052420 61 0 0.0 0.0 0.00 0.00 0.00 1022.1
20260502051920 61 240 1.0 3.0 0.00 0.00 0.00 1025.1
20260502051419 61 233 2.0 6.0 0.00 0.00 0.00 1020.4
20260502050918 61 212 2.0 3.0 0.00 0.00 0.00 1027.5
20260502050418 61 236 2.0 4.0 0.00 0.00 0.00 1026.1
20260502045918 61 262 3.0 5.0 0.00 0.00 0.00 1026.4
20260502045417 62 248 2.0 5.0 0.00 0.00 0.00 1022.8
20260502044916 61 0 0.0 0.0 0.00 0.00 0.00 1026.3
20260502044416 60 193 0.0 2.0 0.00 0.00 0.00 1023.7
20260502043915 59 0 0.0 0.0 0.00 0.00 0.00 1023.6
20260502043415 58 221 0.0 2.0 0.00 0.00 0.00 1028.1
20260502042914 58 0 0.0 0.0 0.00 0.00 0.00 1023.8
20260502042413 60 225 1.0 2.0 0.00 0.00 0.00 1024.5
20260502041913 59 0 0.0 0.0 0.00 0.00 0.00 1023.6
20260502041412 58 200 0.0 0.0 0.00 0.00 0.00 1023.0
20260502040358 60 200 0.0 1.0 0.00 0.00 0.00 1021.8
20260502035856 60 224 1.0 4.0 0.00 0.00 0.00 1024.2
20260502035356 58 219 2.0 4.0 0.00 0.00 0.00 1027.5
20260502034855 58 231 2.0 3.0 0.00 0.00 0.00 1021.8
20260502033353 58 0 0.0 0.0 0.00 0.00 0.00 1024.4
20260502032853 60 0 0.0 0.0 0.00 0.00 0.00 1025.6
20260502032352 60 0 0.0 0.0 0.00 0.00 0.00 1023.6
20260502031851 59 0 0.0 0.0 0.00 0.00 0.00 1023.3
20260502031351 59 214 0.0 0.0 0.00 0.00 0.00 1024.9
20260502030350 59 93 0.0 1.0 0.00 0.00 0.00 1025.6
20260502025849 60 201 0.0 2.0 0.00 0.00 0.00 1023.2
20260502025349 58 84 0.0 3.0 0.00 0.00 0.00 1026.4
20260502024848 60 0 0.0 0.0 0.00 0.00 0.00 1023.2
20260502024348 58 89 0.0 1.0 0.00 0.00 0.00 1023.6
20260502023346 60 0 0.0 0.0 0.00 0.00 0.00 1023.6
20260502022846 58 222 0.0 1.0 0.00 0.00 0.00 1022.5
20260502022345 59 0 0.0 0.0 0.00 0.00 0.00 1026.1
20260502021845 59 231 0.0 2.0 0.00 0.00 0.00 1024.3
20260502021344 58 210 0.0 2.0 0.00 0.00 0.00 1021.3
20260502020341 60 0 0.0 0.0 0.00 0.00 0.00 1025.1
20260502015840 58 0 0.0 0.0 0.00 0.00 0.00 1024.3
20260502015339 60 224 1.0 2.0 0.00 0.00 0.00 1022.6
20260502014839 57 224 0.0 2.0 0.00 0.00 0.00 1024.3
20260502014338 58 228 0.0 1.0 0.00 0.00 0.00 1025.0
20260502013837 58 210 0.0 1.0 0.00 0.00 0.00 1021.8
20260502013337 59 221 2.0 3.0 0.00 0.00 0.00 1023.2
20260502012836 58 210 0.0 2.0 0.00 0.00 0.00 1022.3
20260502012336 60 0 0.0 0.0 0.00 0.00 0.00 1024.7
20260502011835 60 233 1.0 3.0 0.00 0.00 0.00 1030.4
20260502011335 58 221 3.0 4.0 0.00 0.00 0.00 1022.5
20260502010834 59 214 1.0 3.0 0.00 0.00 0.00 1025.6
20260502010334 60 93 0.0 1.0 0.00 0.00 0.00 1027.0
20260502005834 59 0 0.0 0.0 0.00 0.00 0.00 1025.7
20260502005333 60 58 0.0 2.0 0.00 0.00 0.00 1021.6
20260502004832 59 55 0.0 2.0 0.00 0.00 0.00 1028.5
20260502004332 61 200 1.0 4.0 0.00 0.00 0.00 1021.5
20260502003832 59 233 0.0 2.0 0.00 0.00 0.00 1021.5
20260502003331 60 229 0.0 2.0 0.00 0.00 0.00 1025.2
20260502002831 59 228 0.0 1.0 0.00 0.00 0.00 1022.1
20260502002330 58 229 0.0 3.0 0.00 0.00 0.00 1024.5
20260502001829 58 222 0.0 3.0 0.00 0.00 0.00 1025.7
20260502001328 57 229 2.0 4.0 0.00 0.00 0.00 1024.9
20260502000828 59 231 1.0 3.0 0.00 0.00 0.00 1028.8
20260502000327 61 219 1.0 3.0 0.00 0.00 0.00 1023.2
20260501235827 60 276 0.0 1.0 0.00 0.00 0.00 1023.1
20260501235326 61 79 1.0 5.0 0.00 0.00 0.00 1025.4
20260501234826 62 87 2.0 6.0 0.00 0.00 0.00 1021.0
20260501234325 62 94 3.0 4.0 0.00 0.00 0.00 1024.2
20260501233825 62 239 1.0 4.0 0.00 0.00 0.00 1026.3
20260501233324 62 97 1.0 4.0 0.00 0.00 0.00 1020.1
20260501232824 62 132 1.0 4.0 0.00 0.00 0.00 1021.1
20260501232324 62 105 1.0 4.0 0.00 0.00 0.00 1025.0
20260501231823 63 121 2.0 5.0 0.00 0.00 0.00 1028.1
20260501231321 64 124 2.0 7.0 0.00 0.00 0.00 1025.4
20260501230820 64 229 1.0 5.0 0.00 0.00 0.00 1021.0
20260501230320 62 207 5.0 11.0 0.00 0.00 0.00 1029.0
20260501225819 64 225 5.0 9.0 0.00 0.00 0.00 1023.3
20260501225319 64 231 4.0 10.0 0.00 0.00 0.00 1027.1
20260501224818 64 222 4.0 7.0 0.00 0.00 0.00 1022.0
20260501224318 61 255 2.0 6.0 0.00 0.00 0.00 1024.0
20260501223817 62 0 0.0 0.0 0.00 0.00 0.00 1025.1
20260501223317 62 228 1.0 3.0 0.00 0.00 0.00 1023.2
20260501222816 63 0 0.0 0.0 0.00 0.00 0.00 1023.5
20260501222315 62 231 0.0 2.0 0.00 0.00 0.00 1022.8
20260501221815 64 121 1.0 2.0 0.00 0.00 0.00 1024.0
20260501221314 62 0 0.0 0.0 0.00 0.00 0.00 1022.3
20260501220814 63 218 1.0 5.0 0.00 0.00 0.00 1024.0
20260501220313 62 212 4.0 7.0 0.00 0.00 0.00 1022.4
20260501215312 64 219 5.0 7.0 0.00 0.00 0.00 1026.2
20260501214812 63 225 5.0 7.0 0.00 0.00 0.00 1027.3
20260501214311 62 231 5.0 7.0 0.00 0.00 0.00 1024.5
20260501213811 62 232 5.0 8.0 0.00 0.00 0.00 1022.4
20260501213310 64 222 6.0 8.0 0.00 0.00 0.00 1026.2
20260501212810 63 217 5.0 7.0 0.00 0.00 0.00 1020.8
20260501212309 64 217 5.0 7.0 0.00 0.00 0.00 1030.3
20260501211809 64 218 5.0 7.0 0.00 0.00 0.00 1020.3
20260501211308 64 231 5.0 7.0 0.00 0.00 0.00 1026.2
20260501210808 64 224 5.0 8.0 0.00 0.00 0.00 1025.1
20260501210307 64 221 5.0 7.0 0.00 0.00 0.00 1023.6
20260501205807 64 226 5.0 7.0 0.00 0.00 0.00 1022.6
20260501205306 63 222 5.0 7.0 0.00 0.00 0.00 1020.8
20260501204806 63 218 5.0 7.0 0.00 0.00 0.00 1023.1
20260501204305 62 222 5.0 7.0 0.00 0.00 0.00 1023.8
20260501203805 62 231 4.0 6.0 0.00 0.00 0.00 1024.0
20260501203304 63 228 4.0 6.0 0.00 0.00 0.00 1027.9
20260501202804 62 228 4.0 6.0 0.00 0.00 0.00 1026.6
20260501202306 61 243 4.0 5.0 0.00 0.00 0.00 1022.3
20260501201835 62 229 3.0 5.0 0.00 0.00 0.00 1021.2
20260501201803 62 229 3.0 5.0 0.00 0.00 0.00 1021.2
20260501201302 60 222 2.0 4.0 0.00 0.00 0.00 1021.5
20260501200802 62 224 1.0 3.0 0.00 0.00 0.00 1025.2
20260501200305 62 222 2.0 3.0 0.00 0.00 0.00 1021.7
20260501195801 61 226 1.0 3.0 0.00 0.00 0.00 1026.3
20260501195259 62 246 1.0 2.0 0.00 0.00 0.00 1024.5
20260501194759 62 204 0.0 2.0 0.00 0.00 0.00 1026.0
20260501194258 62 233 0.0 2.0 0.00 0.00 0.00 1024.0
20260501193758 61 215 0.0 1.0 0.00 0.00 0.00 1018.4
20260501193257 62 243 1.0 2.0 0.00 0.00 0.00 1026.2
20260501192757 60 240 1.0 3.0 0.00 0.00 0.00 1024.0
20260501192256 63 232 1.0 2.0 0.00 0.00 0.00 1025.2
20260501191756 62 228 2.0 3.0 0.00 0.00 0.00 1019.8
20260501191255 60 233 2.0 3.0 0.00 0.00 0.00 1026.1
20260501190758 61 222 2.0 2.0 0.00 0.00 0.00 1021.7
20260501190254 61 231 3.0 3.0 0.00 0.00 0.00 1023.8
20260501185754 63 233 3.0 3.0 0.00 0.00 0.00 1026.6
20260501185253 62 229 2.0 3.0 0.00 0.00 0.00 1023.7
20260501184753 61 222 2.0 3.0 0.00 0.00 0.00 1020.4
20260501184252 63 228 1.0 2.0 0.00 0.00 0.00 1023.2
20260501183752 63 218 0.0 1.0 0.00 0.00 0.00 1020.7
20260501183251 64 0 0.0 0.0 0.00 0.00 0.00 1025.9
20260501182747 65 76 0.0 1.0 0.00 0.00 0.00 1021.5
20260501182247 66 107 1.0 3.0 0.00 0.00 0.00 1023.5
20260501181922 65 91 2.0 3.0 0.00 0.00 0.00 1022.2
20260501181746 65 91 2.0 3.0 0.00 0.00 0.00 1022.2